Regional Weather Roundup
Issued by NWS Charleston, SC

Current Version | Previous Version | Graphics & Text | Print | Product List | Glossary On
Versions: 1 2 3 4 5 6 7 8 9 10 11 12 13 14 15 16 17 18 19 20 21 22 23 24 25 26 27 28 29 30 31 32 33 34 35 36 37 38 39 40 41 42 43 44 45 46 47 48 49 50
000 ASUS42 KCHS 262325 RWRCHS REGIONAL WEATHER ROUNDUP NATIONAL WEATHER SERVICE CHARLESTON SC 600 PM EST MON JAN 26 2015 NOTE: "FAIR" INDICATES FEW OR NO CLOUDS BELOW 12,000 FEET WITH NO SIGNIFICANT WEATHER AND/OR OBSTRUCTIONS TO VISIBILITY. NOT ALL STATIONS ARE QUALITY CONTROLLED BY THE NATIONAL WEATHER SERVICE. USE DATA WITH CAUTION...ESPECIALLY DEWPOINT OBSERVATIONS. SCZ027-030-031-034>040-042>050-270000- ...SOUTHEAST SOUTH CAROLINA... CITY SKY/WX TMP DP RH WIND PRES REMARKS N CHARLESTON PTCLDY 54 37 52 W13G21 29.68R WATERFRONT PRK N/A 54 N/A N/A W10G20 N/A MOUNT PLEASANT DRIZZLE N/A N/A N/A CALM 29.69R PINOPOLIS NOT AVBL MONCKS CORNER CLOUDY 50 46 87 CALM 29.68R SUMMERVILLE NOT AVBL BEAUFORT MCAS MOCLDY 53 37 54 W13G22 29.74R BEAUFORT ARPT CLOUDY 52 39 62 W18G26 29.73R HILTON HEAD IS MOCLDY 54 37 54 W13G23 29.75R WALTERBORO CLEAR 52 34 50 W10G17 29.73R ALLENDALE MOCLDY 50 36 57 W10G23 29.74R ...SOUTHERN MIDLANDS AND PEE DEE... CITY SKY/WX TMP DP RH WIND PRES REMARKS GEORGETOWN NOT AVBL KINGSTREE NOT AVBL ORANGEBURG CLOUDY 54 35 48 W16G26 29.69R BARNWELL FAIR 48 36 61 W10G20 29.75R AIKEN FAIR 45 34 65 W18 29.77R MANNING NOT AVBL COLUMBIA MOCLDY 53 35 50 W15G24 29.69R SUMTER MOCLDY 49 38 65 W3 29.66R FLORENCE CLOUDY 51 38 60 NW9 29.65R MYRTLE BEACH CLOUDY 48 43 81 NW8 29.66R N MYRTLE BEACH CLOUDY 49 44 83 W8 29.63R $$ GAZ063-065-086>088-099>101-113>116-118-119-134>141-150-270000- ...SOUTHEAST GEORGIA... CITY SKY/WX TMP DP RH WIND PRES REMARKS SAVANNAH ARPT PTCLDY 50 36 58 W15G25 29.77R HUNTER AAF CLEAR 50 37 62 W13G21 29.75R FORT STEWART CLOUDY 51 37 58 W12 29.79R STATESBORO CLOUDY 49 36 61 W14G28 29.80R SYLVANIA CLOUDY 49 38 65 NW16G25 29.79R CLAXTON FAIR 50 37 62 W18 29.81R ...CSRA...CENTRAL AND FAR SOUTHEAST GEORGIA... CITY SKY/WX TMP DP RH WIND PRES REMARKS THOMSON CLEAR 44 35 68 W8 29.85R AUGUSTA-BUSH PTCLDY 47 31 53 W17G29 29.77R AUGUSTA-DANIEL PTCLDY 47 32 56 W12G20 29.78R SWAINSBORO CLOUDY 48 28 46 W12G29 29.83R VIDALIA CLOUDY 48 36 61 W7 29.83R EASTMAN CLOUDY 46 36 66 NW13G22 29.90R HAZLEHURST CLOUDY 50 39 66 NW13G21 29.85R ALMA CLOUDY 50 35 56 NW17G26 29.85R WAYCROSS CLOUDY 53 40 62 W9G16 29.86R JESUP CLOUDY 54 39 58 NW14G21 29.84R BAXLEY CLOUDY 50 37 62 NW16G24 29.84R BRUNSWICK CLOUDY 52 37 58 W9G17 29.84R SAINT SIMONS CLOUDY 51 36 56 W12G30 29.83R $$ SCZ027-028-034-036>038-045-046-048>050-GAZ119-141-270000- ...LAKE AND SUPPLEMENTAL COASTAL OBSERVATIONS... STATION/POSITION TIME TEMP WIND PRES WAVE SWELL AIR SEA DIR/SP/G HT/PER HT/PER/DIR (UTC) (F) (DEG/KT/KT) (MB) (FT/S) (FT/S/D) UPR LAKE MARION NOT AVBL WINYAH BAY NOT AVBL LAKE MURRAY 2200 54 290/ 9/ 14 1004.4R ACE BASIN NERRS NOT AVBL FORT PULASKI 2300 51 53 270/ 18/ 23 1008.3R SAPELO ISLAND NOT AVBL $$ ANZ835-935-AMZ111-154-330-350-352-354-370-450-454-472-270000- ...C-MAN AND BUOY OBSERVATIONS... STATION/POSITION TIME TEMP WIND PRES WAVE SWELL AIR SEA DIR/SP/G HT/PER HT/PER/DIR (UTC) (F) (DEG/KT/KT) (MB) (FT/S) (FT/S/D) BUOY 41004 2300 57 68 270/ 25/ 33 1003.6R 7/ 7 2/12 BUOY 41008 2300 52 55 280/ 23/ 27 1008.6R 4/ 5 FOLLY BEACH CMAN 2300 51 250/ 7/ 10 1005.8R CAPERS NEARSHORE 2200 51 280/ 17/ 21 N/A FRIPP NEARSHORE 2200 54 280/ 17/ 21 N/A STATION/POSITION TIME TEMP WIND PRES WAVE SWELL AIR SEA DIR/SP/G HT/PER HT/PER/DIR (UTC) (F) (DEG/KT/KT) (MB) (FT/S) (FT/S/D) 5E ST. MARYS GA 2300 58 N/A 3/ 4 FRYING PAN BUOY 2300 58 66 280/ 19/ 23 1002.0R 5/ 8 2/190/ 8 BUOY 41025 2300 55 70 310/ 16/ 19 998.7R 3/ 7 3/180/ 7 CAPE LOOKOUT NC 2300 51 330/ 9/ 10 1000.7R BUOY 41002 2237 65 72 280/ 25/ 33 1000.6R 10/ 9 5/260/ 9 BUOY 41010 2300 67 76 280/ 27/ 33 1007.9R 13/ 8 7/310/14 ST AUGUSTINE FL 2300 56 300/ 7/ 9 1010.6R $$

USA.gov is the U.S. government's official web portal to all federal, state and local government web resources and services.